This is the latest recevied weather packets stored in our database for station/object DB0TV-13. If no packets are shown the sender has not sent any weather packets the latest 10 day(s).
| Time | Temp. | Humidity | Pressure | Rain* | Wind** | Luminosity | Snow |
|---|---|---|---|---|---|---|---|
| 1778007619 | 10° C | 97% | 1006.7 hPa | 0.51 mm | - | 0 W/m² | - |
| 1778007018 | 10° C | 97% | 1006.7 hPa | 0.51 mm | - | 0 W/m² | - |
| 1778006418 | 10° C | 97% | 1006.7 hPa | 0.51 mm | - | 0 W/m² | - |
| 1778005820 | 10° C | 97% | 1006.7 hPa | 0.51 mm | - | 0 W/m² | - |
| 1778005218 | 10° C | 97% | 1006.6 hPa | 0.25 mm | - | 6 W/m² | - |
| 1778004618 | 10° C | 97% | 1006.7 hPa | 0.25 mm | - | 8 W/m² | - |
| 1778004019 | 10° C | 97% | 1006.8 hPa | 0.25 mm | - | 9 W/m² | - |
| 1778003420 | 10° C | 97% | 1006.8 hPa | 0 mm | - | 12 W/m² | - |
| 1778002818 | 10° C | 96% | 1006.8 hPa | 0 mm | - | 13 W/m² | - |
| 1778002218 | 10.56° C | 96% | 1006.9 hPa | 0 mm | - | 12 W/m² | - |
| 1778001620 | 10.56° C | 96% | 1006.9 hPa | 0 mm | - | 14 W/m² | - |
| 1778001020 | 10.56° C | 97% | 1007.1 hPa | 0 mm | - | 15 W/m² | - |
| 1778000418 | 10.56° C | 96% | 1007.1 hPa | 0 mm | - | 18 W/m² | - |
| 1777999818 | 10.56° C | 96% | 1007 hPa | 0 mm | - | 20 W/m² | - |
| 1777999220 | 10.56° C | 96% | 1007 hPa | 0 mm | - | 24 W/m² | - |
| 1777998620 | 10.56° C | 96% | 1007.2 hPa | 0 mm | - | 28 W/m² | - |
| 1777998018 | 10.56° C | 96% | 1007.1 hPa | 0 mm | - | 38 W/m² | - |
| 1777997418 | 11.11° C | 96% | 1007.1 hPa | 0 mm | - | 44 W/m² | - |
| 1777996820 | 11.11° C | 96% | 1007.2 hPa | 0 mm | - | 40 W/m² | - |
| 1777996218 | 11.11° C | 96% | 1007.3 hPa | 0 mm | - | 42 W/m² | - |
| 1777995618 | 11.11° C | 96% | 1007.3 hPa | 0 mm | - | 54 W/m² | - |
| 1777995020 | 11.11° C | 96% | 1007.4 hPa | 0 mm | - | 48 W/m² | - |
| 1777994420 | 11.67° C | 96% | 1007.6 hPa | 0 mm | - | 55 W/m² | - |
| 1777993820 | 11.67° C | 96% | 1007.8 hPa | 0 mm | - | 64 W/m² | - |
| 1777993218 | 11.67° C | 96% | 1007.7 hPa | 0 mm | - | 82 W/m² | - |
* Rain latest hour (hover to see other rain measurements)
** Current wind speed in m/s (hover to see current wind gust speed)